User: anonymous   Login
Location: Allentsteig
(48.6833°N, 15.3167°E)
Time: 02:42:29
(UTC+00:00)
Language:

SL-14 R/B - Orbit

View from above orbital plane
View from above orbital plane
View from above satellite
View from above satellite

Ground track
Ground track

The orbit data is extracted from the following two-line orbital elements,

1 33505U 09003B   20329.24879791 +.00000789 +00000-0 +46450-4 0  9998
2 33505 082.3861 073.1082 0026587 184.8382 175.2595 15.09930635650320
Epoch (UTC): 24 November 2020 05:58:16
Eccentricity: 0.0026587
inclination: 82.3861°
perigee height: 518 km
apogee height: 555 km
right ascension of ascending node: 73.1082°
argument of perigee: 184.8382°
revolutions per day: 15.09930635
mean anomaly at epoch: 175.2595°
orbit number at epoch: 65032

The dashed part of the orbit path shows where the satellite is in the earth's shadow,  

DLR